Home   Weather   Magdeburg   Past weeks
Flag for Germany

Past Weather in Magdeburg, Saxony-Anhalt, Germany — Yesterday and Last 2 Weeks

Now
70 °F

Scattered clouds.


Feels Like: 70 °F
Forecast: 71 / 58 °F
Wind: 13 mph from West

Location: Braunschweig Wolfsburg

Current Time: Jun 20, 2019 at 11:19:25 am

Latest Report: Jun 20, 2019 at 10:20 am


Visibility: N/A

Pressure: 29.83 "Hg

Humidity: 73%

Dew Point: 61 °F

Location of MagdeburgLocation

Past Weather in Magdeburg — Graph

°F

Magdeburg Temperature Yesterday

Maximum temperature yesterday: 90 °F (at 3:20 pm)
Minimum temperature yesterday: 66 °F (at 6:50 am)
Average temperature yesterday: 80 °F

High & Low Weather Summary for the Past Weeks

 TemperatureHumidityPressure
High91 °F (Jun 5, 4:50 pm)100% (Jun 12, 6:50 am)30.27 "Hg (Jun 12, 6:50 am)
Low54 °F (Jun 14, 6:50 am)26% (Jun 5, 4:50 pm)29.68 "Hg (Jun 5, 5:50 pm)
Average72 °F58%29.93 "Hg
* Reported Jun 5 9:20 am — Jun 20 9:50 am, Magdeburg. Weather by CustomWeather, © 2019

Note: Actual official high and low records may vary slightly from our data, if they occured in-between our weather recording intervals... More about our weather records

Advertising

Magdeburg Weather History for the Previous 24 Hours

Scroll right to see more
 ConditionsComfort  
Time TempWeatherWind HumidityBarometerVisibility
9:50 am
Thu, Jun 20
68 °FPassing clouds.13 mph73%29.83 "HgN/A
9:20 am68 °FPassing clouds.10 mph78%29.83 "HgN/A
8:50 am66 °FPassing clouds.8 mph78%29.83 "HgN/A
8:20 am66 °FSunny.8 mph78%29.83 "Hg10 mi
7:50 am64 °FSunny.7 mph83%29.80 "Hg10 mi
7:20 am63 °FPassing clouds.6 mph88%29.80 "HgN/A
6:50 am63 °FSunny.8 mph88%29.80 "Hg10 mi
6:20 am63 °FSunny.6 mph94%29.80 "Hg10 mi
5:50 am61 °FPassing clouds.5 mph94%29.80 "HgN/A
9:50 pm
Wed, Jun 19
68 °FThunderstorms. Mostly cloudy.9 mph69%29.77 "HgN/A
9:20 pm68 °FThunderstorms. Overcast.10 mph73%29.74 "HgN/A
8:50 pm68 °FThunderstorms. Mostly cloudy.8 mph78%29.74 "HgN/A
8:20 pm70 °FThunderstorms. Passing clouds.10 mph64%29.74 "HgN/A
7:50 pm75 °FThunderstorms. Passing clouds.8 mph47%29.74 "HgN/A
7:20 pm73 °FPassing clouds.6 mph53%29.74 "HgN/A
6:50 pm72 °FThunderstorms. Overcast.7 mph65%29.77 "HgN/A
6:20 pm77 °FThunderstorms. Broken clouds.14 mph42%29.74 "HgN/A
5:50 pm82 °FSunny.10 mph37%29.74 "Hg10 mi
5:20 pm86 °FSunny.9 mph35%29.74 "Hg10 mi
4:50 pm88 °FSunny.10 mph29%29.74 "Hg10 mi
4:20 pm88 °FPassing clouds.9 mph27%29.74 "HgN/A
3:50 pm90 °FPassing clouds.8 mph29%29.74 "HgN/A
3:20 pm90 °FPassing clouds.9 mph31%29.74 "HgN/A
2:50 pm88 °FPassing clouds.10 mph33%29.74 "HgN/A
2:20 pm88 °FPassing clouds.7 mph33%29.77 "HgN/A
1:50 pm88 °FPassing clouds.10 mph27%29.77 "HgN/A
1:20 pm88 °FPassing clouds.7 mph29%29.77 "HgN/A
12:50 pm86 °FPassing clouds.8 mph33%29.77 "HgN/A
12:20 pm86 °FPassing clouds.9 mph31%29.77 "HgN/A
11:50 am86 °FPassing clouds.7 mph33%29.77 "HgN/A
11:20 am86 °FPassing clouds.6 mph35%29.80 "HgN/A
Weather by CustomWeather, © 2019

See weather overview